Location: Firdgum
(53.2488°N, 5.5615°E)
Time: 03:22:52
(UTC+00:00)

Cosmos 1741 Rocket - Pass Details

Date: 08 December 2019
Orbit: 762 x 782 km, 74.0° (Epoch: 22 January)

Event Time Altitude Azimuth Distance (km) Brightness Sun altitude
Exits shadow 05:43:17 18° 327° (NNW) 1,839 5.5 -16.0°
Maximum altitude 05:47:12 64° 249° (WSW) 848 4.0 -15.4°
Drops below altitude 10° 05:52:20 10° 169° (S) 2,294 6.9 -14.7°
Sets 05:54:43 0° 167° (SSE) 3,217 7.7 -14.4°
